Temperature
26 23 22 23 24 25 26 26 26 27 27 25 22 19 18 18 17 16 16 15 15 15 16 17 18 18 19 19 19 19 18 17 17 17 17 18 18 19 19 19 19 19 19 19
23 23 25 26 27 27 26 26 25 26 27 26 21 19 18 17 16 15 15 14 14 14 14 15 16 17 18 18 18 18 17 17 17 17 17 18 18 19 19 19 19 19 19 19
24 25 27 27 27 27 26 26 26 26 25 24 23 19 18 17 17 16 15 14 13 13 14 15 16 17 17 17 17 16 16 17 17 17 17 18 19 19 19 19 19 19 19 19
24 26 26 26 26 27 25 27 27 26 24 21 22 19 17 17 16 16 15 14 14 14 14 15 15 16 15 15 15 16 16 16 17 17 18 18 18 19 19 18 18 18 18 18
23 24 24 25 27 27 27 26 25 24 23 21 20 19 17 17 16 15 15 14 14 14 14 15 15 15 15 15 15 15 15 16 16 16 17 17 18 18 18 18 18 18 18 18
24 25 25 26 27 27 27 24 22 19 19 20 19 18 17 16 15 15 15 15 15 15 15 15 15 15 15 15 15 15 15 15 15 15 16 16 16 16 17 17 17 17 17 17
23 24 25 26 26 26 25 21 19 20 18 19 19 17 16 16 16 16 15 15 15 15 15 15 15 15 15 15 15 15 15 15 15 15 15 15 15 15 15 15 15 16 16 16
22 22 25 26 26 25 25 21 20 20 19 18 18 17 16 16 16 16 16 16 15 15 15 15 15 15 15 15 15 15 14 14 14 14 14 14 14 14 14 14 14 14 14 14
21 22 25 26 26 26 25 22 21 19 20 18 17 16 16 15 16 16 16 16 16 15 15 15 15 15 15 15 14 14 14 14 13 13 13 13 13 13 13 12 12 13 13 13
22 22 23 25 25 24 24 22 19 19 19 19 18 17 16 15 15 16 15 15 16 16 16 15 15 15 15 14 14 14 13 13 13 13 13 12 12 12 12 12 11 11 11 12
22 21 22 22 23 23 23 23 20 17 18 18 18 17 17 15 15 15 15 16 16 16 16 15 15 15 14 14 13 13 13 13 13 12 12 12 12 12 11 11 11 11 11 11
22 18 19 21 22 24 23 22 20 19 19 17 17 16 17 15 15 16 16 16 16 16 15 15 14 14 13 13 13 13 12 12 12 12 12 12 11 11 11 11 10 10 10 10
21 19 18 19 20 21 21 21 19 17 16 17 16 16 16 15 15 16 15 15 15 15 14 14 13 13 13 13 12 12 12 12 11 11 11 11 11 11 11 10 10 10 10 10
21 18 19 19 19 21 21 20 20 17 16 16 16 16 14 14 14 14 15 15 15 14 13 13 13 13 13 12 12 12 12 11 11 11 11 11 10 10 10 10 10 10 10 10
19 19 20 20 21 21 20 20 20 18 18 16 16 15 13 13 13 14 14 14 14 13 13 13 13 12 12 12 12 12 11 11 11 11 11 10 10 10 10 10 9 9 9 9
17 18 18 19 21 20 19 19 19 18 17 17 15 14 14 14 14 14 14 14 13 13 13 13 13 12 12 12 12 12 11 11 11 11 10 10 10 10 10 9 9 9 9 9
18 18 18 18 19 19 16 17 17 17 16 15 13 13 12 12 13 13 14 13 13 13 13 12 12 12 12 12 11 11 11 11 11 10 10 10 10 10 9 9 9 9 8 8
19 17 16 17 18 18 17 18 18 17 15 14 14 13 13 13 13 13 13 13 13 12 12 12 11 11 11 11 10 10 10 10 10 10 10 10 9 9 9 9 8 8 8 8
18 18 17 16 18 18 18 18 18 17 14 14 13 12 13 13 12 12 13 12 12 12 11 11 10 10 9 9 9 8 8 8 8 8 8 8 8 8 8 8 8 8 8 7
17 16 16 17 18 17 17 17 18 17 14 13 13 12 12 12 9 10 12 12 11 10 10 9 9 8 8 7 7 6 6 6 6 6 6 6 7 7 7 7 7 7 7 7
18 16 16 16 17 16 16 17 15 13 12 14 14 13 12 11 10 12 11 11 10 9 9 8 7 6 6 6 5 5 5 5 5 5 5 5 5 5 5 6 6 6 6 6
17 16 16 15 16 15 16 15 14 13 14 14 13 13 12 12 12 11 10 10 9 8 7 7 6 5 5 5 4 4 4 4 4 4 4 4 4 4 4 5 5 5 5 5
16 15 14 14 14 15 16 15 15 15 14 13 13 12 12 11 11 10 9 9 8 7 6 6 5 5 5 4 4 4 4 4 4 4 4 4 4 4 4 4 4 4 5 5
17 17 15 15 15 16 15 15 15 14 13 13 12 12 11 11 10 9 9 8 7 6 6 5 5 4 4 4 4 4 4 4 4 4 4 4 4 4 4 4 4 4 4 5
17 16 15 15 15 16 15 15 14 14 13 13 12 11 11 10 9 8 8 7 6 6 5 5 4 4 4 5 5 5 5 4 4 4 4 4 4 4 4 4 4 4 4 5
16 15 14 14 15 14 15 14 14 13 13 12 11 11 10 9 9 8 7 7 6 5 5 5 5 5 5 5 5 5 5 5 4 4 4 4 4 4 4 4 4 4 4 5
Wind_Speed
2 2 6 11 9 9 6 5 5 5 6 9 16 20 21 22 23 21 18 15 12 10 6 6 6 6 6 6 9 12 10 7 6 4 2 2 2 2 3 5 6 7 7 8
3 6 12 10 8 6 6 6 6 6 7 8 15 19 18 22 22 18 16 14 11 8 7 8 7 8 9 10 11 10 7 6 5 3 3 3 3 3 3 4 6 6 7 7
3 4 7 8 9 6 6 4 5 6 6 8 8 10 14 15 18 18 17 14 13 12 11 10 12 13 13 14 11 10 9 7 6 5 3 3 2 1 2 1 3 5 7 7
5 7 11 11 8 4 5 6 4 5 5 4 5 3 5 8 15 15 14 12 11 10 10 11 13 14 13 11 10 10 8 8 8 8 6 4 3 2 2 2 3 4 5 7
5 6 8 8 6 3 4 5 4 3 1 2 4 5 1 4 9 10 9 9 7 7 8 10 10 9 9 8 8 8 8 8 9 10 10 8 7 5 4 4 5 3 3 4
4 4 3 5 6 3 2 7 8 7 5 3 3 4 2 2 2 3 4 4 3 3 5 6 6 6 6 6 6 6 7 8 8 8 9 9 9 8 7 7 6 5 4 3
6 7 5 3 4 6 7 7 6 7 6 3 1 5 2 3 4 4 4 3 2 1 3 4 4 4 3 3 3 3 5 5 6 6 7 6 7 7 7 7 6 6 5 4
2 6 6 4 2 4 1 8 5 3 4 2 3 2 3 3 3 3 4 4 3 1 1 1 1 1 1 1 1 0 1 2 3 4 5 4 5 4 4 5 5 5 5 5
4 6 6 6 4 1 1 1 5 6 1 2 1 2 1 4 4 4 4 3 2 1 1 1 3 3 4 4 4 3 2 2 3 3 3 3 3 4 5 6 5 5 5 6
4 4 6 5 7 6 3 3 6 5 2 3 2 3 5 8 8 5 4 3 2 2 3 5 6 6 6 6 6 5 4 5 5 5 5 4 5 5 5 5 6 6 6 5
3 2 7 6 4 4 5 4 5 3 4 3 3 5 4 8 7 5 4 4 4 5 6 8 8 7 6 5 4 5 6 7 7 8 8 8 8 7 7 6 7 7 6 6
3 4 3 5 5 3 4 3 4 3 2 2 1 4 2 4 3 2 0 3 5 7 8 8 7 6 5 5 6 7 8 9 10 10 10 10 10 9 8 9 9 8 8 7
4 5 5 9 9 8 7 6 5 6 4 3 2 5 5 2 3 3 4 7 8 9 8 6 5 5 6 7 8 9 9 10 11 11 10 11 10 10 10 10 10 9 9 9
4 5 4 2 6 4 4 7 7 6 4 3 2 3 8 7 7 7 8 10 10 8 6 6 6 8 8 9 9 10 11 11 11 11 11 11 12 12 12 11 10 10 10 10
6 4 4 3 2 8 10 9 10 9 6 3 3 2 4 6 6 7 9 11 9 7 8 10 10 10 10 11 11 11 11 11 11 10 11 12 12 11 11 11 11 11 11 12
5 5 7 6 8 12 11 11 9 7 6 4 3 1 5 7 6 9 11 12 10 10 12 12 12 12 12 12 13 12 12 12 11 11 11 12 11 11 11 11 11 10 11 11
3 4 5 5 5 4 6 7 6 4 5 4 3 5 8 8 10 11 11 10 11 14 15 15 14 14 14 14 14 13 14 12 11 12 12 12 11 11 11 11 9 10 10 10
4 3 3 2 7 4 3 2 5 4 5 4 2 6 7 9 10 9 10 11 14 15 15 15 14 14 13 13 13 13 12 12 12 12 12 12 12 11 11 10 9 9 8 8
4 5 4 3 2 2 0 4 4 2 3 3 5 8 10 9 8 7 10 11 14 15 15 14 13 15 13 13 13 14 13 13 12 12 11 11 11 11 10 10 9 8 7 8
6 6 5 3 1 3 3 5 6 2 2 3 7 9 9 10 10 8 11 12 12 12 11 11 12 12 13 13 13 14 15 14 14 13 12 11 10 10 10 9 9 8 8 9
4 6 5 3 1 2 3 5 5 5 7 8 6 8 8 7 8 12 14 12 11 11 11 11 12 13 14 15 15 15 16 16 16 15 14 14 12 11 10 9 8 8 8 8
4 3 2 2 2 5 4 4 3 5 6 6 6 7 8 9 11 11 12 12 13 12 12 13 14 15 15 15 15 17 17 17 16 16 16 15 13 12 12 8 8 8 8 8
4 7 6 6 5 5 2 4 4 4 3 5 6 8 8 10 10 11 10 12 12 13 14 14 16 18 17 15 15 18 18 17 17 16 15 15 14 12 10 10 10 9 8 8
2 4 4 3 4 5 4 2 1 1 2 5 6 7 9 9 11 11 11 11 13 13 15 16 18 19 19 18 17 17 17 16 15 15 14 12 11 11 10 9 8 8 7 7
7 5 4 2 2 2 3 3 2 3 5 7 7 7 9 9 9 9 10 12 13 14 15 16 18 19 20 20 19 17 16 14 14 13 12 10 9 9 8 8 7 8 8 8
1 6 6 5 6 4 4 3 3 5 6 7 8 9 9 7 9 10 11 11 13 17 17 18 19 19 19 19 18 17 15 13 12 11 10 8 7 7 6 6 6 9 10 11
Wind_Direction
302 116 250 253 227 225 269 304 317 312 339 42 61 60 49 49 55 53 48 46 53 58 48 45 52 64 76 71 75 73 61 23 345 351 353 340 266 244 203 184 179 171 165 160
324 251 247 259 299 313 330 343 339 330 354 46 76 70 59 54 57 54 46 37 31 35 38 37 44 56 59 59 57 67 61 34 339 299 263 247 241 241 210 190 184 181 171 165
242 291 326 327 321 329 330 326 334 335 2 30 89 64 53 55 59 55 48 38 29 31 38 42 49 49 50 49 43 47 44 30 353 337 316 313 332 7 24 241 211 205 188 175
355 337 348 333 311 321 310 299 328 345 12 342 50 94 57 58 54 51 45 37 28 24 34 43 48 48 50 48 46 44 39 25 8 11 16 13 13 352 324 291 266 243 210 189
313 316 328 314 297 323 275 307 349 347 3 26 28 100 42 34 47 45 47 45 29 26 36 45 48 50 49 45 43 38 35 34 24 24 25 23 24 5 347 349 342 313 259 220
266 264 253 268 301 325 18 29 27 37 54 25 342 108 16 16 81 81 69 67 43 41 52 56 56 56 49 43 36 27 25 21 19 25 27 24 19 10 10 7 358 344 327 303
330 319 296 268 322 337 48 62 23 0 1 296 37 96 171 170 161 145 143 155 166 127 84 78 69 61 54 46 34 32 29 13 8 18 22 17 12 5 4 355 349 345 338 326
341 312 310 320 269 240 295 120 138 222 250 286 18 109 190 182 181 177 168 162 164 162 109 101 138 156 196 211 218 252 20 347 349 2 359 359 2 354 342 337 333 334 326 314
190 267 298 317 326 108 32 2 174 154 9 65 108 111 236 240 219 198 168 147 137 139 184 249 246 232 226 223 222 219 233 277 291 290 292 301 317 320 316 317 317 316 316 321
161 258 304 332 25 19 127 137 65 69 56 347 308 215 212 206 216 201 182 173 189 228 262 269 262 249 236 215 205 205 214 238 253 256 255 254 260 265 274 289 298 301 305 315
99 98 322 357 19 338 359 29 77 93 132 131 309 288 227 196 194 188 193 203 234 260 269 270 272 273 266 249 237 238 242 247 252 253 253 254 256 256 260 266 269 273 281 292
40 96 341 307 297 352 41 37 105 107 353 90 134 292 289 171 167 137 299 296 294 293 289 293 305 311 306 288 275 264 258 255 255 254 253 254 256 255 254 257 262 264 269 272
71 79 26 349 346 4 35 26 68 111 94 68 65 317 356 45 29 8 340 321 311 307 313 322 324 313 292 274 266 261 259 257 258 256 254 256 258 257 254 253 255 256 258 263
94 80 132 212 265 304 57 49 52 78 78 49 65 325 360 3 355 346 334 320 311 313 318 308 292 280 271 264 258 255 255 253 255 254 251 250 252 252 253 253 251 251 250 252
75 48 338 299 51 85 76 61 64 71 74 82 332 94 356 337 327 317 314 313 316 314 305 296 284 275 269 265 261 256 254 253 251 246 244 244 245 245 247 250 251 251 250 251
65 46 16 11 82 95 70 46 46 47 37 17 40 82 306 307 318 321 320 319 313 305 304 300 293 285 279 273 269 264 259 256 248 239 237 236 235 237 239 243 247 250 251 251
57 65 39 336 320 79 33 29 51 31 29 65 45 305 307 320 321 312 311 310 304 307 307 303 297 289 286 284 278 274 268 260 249 242 240 233 228 227 229 235 237 241 247 250
122 90 99 5 24 26 239 92 75 90 95 67 3 301 303 302 297 291 297 301 305 305 305 302 300 298 296 294 294 290 285 275 265 258 251 240 229 226 224 223 226 232 236 241
133 127 90 76 11 202 318 12 357 299 175 54 354 330 321 309 307 290 282 293 298 301 305 309 310 312 314 315 315 313 308 300 292 285 273 259 245 234 224 220 223 227 233 241
54 82 93 73 7 258 260 321 312 330 264 342 353 331 320 335 334 306 303 305 305 309 313 318 321 321 322 321 322 320 315 310 303 300 293 280 264 249 235 226 226 228 230 238
28 40 64 57 310 275 299 322 35 56 281 299 313 317 319 316 288 295 311 315 316 316 318 321 321 320 316 314 313 310 307 303 301 300 297 292 279 264 250 239 237 237 238 239
135 113 101 89 5 275 325 49 73 247 260 291 304 307 305 298 296 305 313 316 321 322 320 322 323 320 316 313 311 308 303 300 298 296 292 288 281 273 271 252 244 242 240 240
150 174 177 177 205 215 120 142 200 217 274 295 299 304 308 313 312 318 318 321 323 321 322 325 323 321 319 315 311 307 304 303 300 295 291 287 282 274 265 257 252 250 241 237
246 155 114 115 151 166 146 133 35 38 335 317 315 316 324 322 321 324 323 324 325 325 326 328 326 325 324 322 317 309 307 307 303 299 295 290 284 277 269 260 251 247 241 232
203 146 118 146 174 160 349 357 24 28 4 346 334 326 328 329 327 325 326 326 327 328 328 328 328 326 323 322 319 317 316 313 309 305 301 296 286 278 272 263 252 245 238 226
210 151 151 207 218 186 255 296 56 32 355 337 336 333 332 335 326 328 327 326 328 329 329 329 327 325 323 322 321 320 319 316 312 311 309 303 296 288 278 274 274 251 239 233
Height
1497 1502 1505 1498 1494 1493 1492 1493 1493 1484 1473 1478 1490 1498 1500 1497 1494 1497 1498 1499 1499 1498 1496 1494 1493 1491 1488 1483 1477 1476 1477 1475 1480 1484 1489 1492 1496 1496 1496 1497 1498 1498 1497 1497
1501 1503 1491 1486 1484 1485 1487 1491 1491 1483 1475 1480 1494 1504 1504 1502 1502 1504 1505 1506 1506 1504 1499 1495 1492 1488 1485 1483 1480 1479 1481 1483 1486 1489 1490 1493 1495 1495 1495 1495 1496 1496 1495 1495
1500 1495 1485 1485 1486 1487 1487 1489 1488 1486 1480 1482 1489 1508 1509 1508 1506 1505 1506 1507 1507 1506 1501 1495 1491 1487 1485 1485 1485 1485 1486 1487 1488 1489 1490 1492 1493 1494 1493 1493 1493 1493 1493 1493
1497 1490 1488 1487 1487 1484 1493 1480 1479 1481 1491 1501 1496 1518 1517 1513 1510 1509 1510 1509 1509 1507 1503 1496 1493 1491 1490 1490 1490 1489 1490 1491 1490 1489 1490 1490 1491 1491 1491 1490 1489 1489 1489 1489
1500 1492 1491 1490 1484 1480 1483 1477 1479 1483 1492 1502 1504 1517 1522 1514 1515 1515 1512 1511 1511 1509 1505 1500 1498 1497 1496 1495 1494 1493 1493 1492 1491 1489 1489 1488 1488 1488 1487 1486 1486 1485 1485 1485
1493 1487 1487 1484 1479 1477 1477 1482 1488 1496 1505 1518 1513 1520 1526 1520 1518 1515 1513 1512 1512 1511 1508 1504 1502 1501 1500 1499 1497 1496 1494 1493 1491 1489 1488 1487 1485 1484 1483 1482 1481 1481 1481 1481
1498 1489 1483 1480 1482 1480 1481 1502 1521 1523 1530 1527 1515 1521 1526 1517 1515 1513 1513 1513 1512 1511 1508 1506 1504 1503 1502 1500 1499 1497 1495 1493 1491 1489 1487 1485 1483 1481 1479 1477 1476 1475 1475 1475
1513 1508 1488 1480 1483 1487 1485 1499 1523 1532 1532 1529 1519 1525 1523 1517 1515 1513 1513 1513 1512 1510 1508 1506 1505 1504 1502 1501 1499 1497 1495 1493 1490 1488 1486 1484 1481 1479 1477 1475 1473 1471 1469 1468
1514 1510 1487 1481 1478 1480 1489 1495 1496 1515 1517 1529 1528 1527 1523 1518 1515 1514 1513 1512 1511 1509 1507 1506 1504 1503 1501 1498 1496 1494 1493 1491 1488 1485 1483 1481 1478 1476 1473 1471 1469 1467 1465 1463
1501 1508 1493 1484 1481 1481 1485 1489 1503 1515 1527 1534 1528 1526 1526 1519 1515 1513 1513 1512 1511 1509 1506 1504 1502 1499 1497 1494 1492 1490 1488 1487 1484 1482 1479 1477 1475 1472 1470 1467 1465 1462 1460 1458
1496 1507 1502 1494 1494 1493 1490 1493 1502 1514 1519 1530 1535 1530 1513 1513 1512 1513 1513 1512 1510 1508 1505 1502 1498 1495 1492 1490 1488 1486 1484 1482 1480 1477 1475 1472 1469 1467 1465 1462 1460 1457 1455 1453
1497 1509 1514 1504 1492 1487 1490 1494 1502 1517 1521 1523 1532 1532 1511 1512 1513 1514 1514 1512 1510 1507 1503 1500 1496 1492 1489 1487 1484 1482 1479 1477 1474 1471 1468 1465 1463 1461 1458 1456 1454 1452 1450 1448
1498 1512 1525 1519 1510 1498 1499 1498 1500 1510 1521 1526 1534 1533 1515 1515 1516 1516 1515 1512 1509 1505 1501 1497 1494 1490 1487 1484 1480 1477 1473 1470 1466 1463 1460 1457 1455 1453 1451 1449 1448 1446 1444 1443
1495 1511 1522 1528 1520 1507 1508 1505 1503 1512 1527 1529 1528 1527 1523 1519 1518 1516 1514 1510 1506 1501 1498 1494 1490 1486 1482 1478 1474 1469 1465 1462 1458 1455 1452 1449 1447 1445 1443 1442 1440 1439 1437 1436
1499 1513 1510 1508 1503 1504 1508 1509 1509 1514 1518 1526 1525 1525 1526 1521 1518 1515 1511 1506 1501 1497 1493 1489 1484 1479 1474 1469 1465 1460 1456 1453 1449 1446 1443 1441 1439 1437 1435 1433 1432 1430 1429 1428
1504 1513 1513 1514 1508 1509 1514 1514 1514 1515 1518 1520 1522 1525 1521 1518 1514 1510 1505 1500 1495 1491 1486 1481 1476 1471 1465 1460 1455 1450 1446 1443 1440 1436 1433 1431 1429 1428 1426 1425 1423 1422 1421 1420
1508 1513 1520 1523 1513 1512 1528 1522 1521 1521 1522 1524 1528 1526 1519 1515 1511 1506 1501 1496 1492 1486 1480 1474 1468 1462 1456 1451 1446 1440 1436 1432 1429 1425 1423 1421 1419 1417 1416 1415 1414 1413 1413 1412
1508 1514 1523 1526 1524 1532 1529 1517 1518 1521 1524 1523 1522 1521 1517 1513 1508 1504 1499 1494 1487 1481 1474 1468 1461 1455 1449 1443 1437 1431 1426 1421 1418 1414 1412 1410 1408 1406 1406 1405 1405 1404 1404 1404
1503 1511 1523 1531 1531 1528 1523 1519 1518 1520 1523 1522 1519 1516 1512 1507 1502 1498 1495 1490 1484 1477 1470 1463 1456 1449 1441 1435 1428 1422 1416 1411 1407 1403 1400 1398 1396 1395 1394 1393 1394 1394 1394 1394
1507 1511 1523 1529 1531 1533 1528 1519 1515 1516 1521 1518 1516 1512 1507 1502 1501 1494 1489 1484 1477 1471 1464 1457 1449 1442 1434 1427 1420 1413 1407 1401 1396 1392 1388 1386 1384 1382 1381 1381 1382 1383 1383 1383
1518 1522 1528 1531 1532 1529 1523 1518 1517 1529 1528 1517 1514 1510 1506 1502 1499 1490 1483 1478 1472 1465 1458 1451 1443 1435 1427 1419 1412 1404 1398 1391 1386 1381 1377 1373 1371 1370 1369 1369 1370 1371 1372 1372
1522 1528 1530 1532 1536 1534 1520 1519 1523 1525 1517 1515 1511 1507 1503 1499 1493 1486 1480 1473 1466 1459 1451 1444 1435 1427 1419 1412 1404 1396 1389 1383 1377 1371 1366 1362 1360 1359 1358 1358 1358 1360 1361 1362
1517 1519 1523 1526 1528 1521 1519 1519 1519 1517 1515 1512 1508 1504 1499 1493 1488 1482 1475 1469 1462 1454 1446 1437 1429 1420 1413 1405 1398 1389 1381 1374 1367 1362 1357 1353 1350 1348 1347 1347 1348 1349 1350 1352
1512 1510 1515 1519 1519 1518 1518 1517 1516 1514 1511 1508 1504 1500 1495 1490 1484 1478 1471 1464 1457 1448 1440 1432 1423 1415 1406 1399 1391 1384 1375 1368 1361 1355 1350 1346 1342 1340 1339 1338 1339 1340 1341 1343
1509 1510 1515 1517 1516 1516 1515 1514 1512 1510 1507 1504 1500 1497 1492 1487 1481 1475 1467 1460 1452 1444 1436 1428 1419 1411 1402 1394 1386 1379 1371 1363 1356 1351 1345 1341 1337 1334 1333 1332 1332 1333 1334 1337
1507 1510 1514 1516 1513 1513 1513 1511 1509 1506 1504 1501 1497 1493 1489 1484 1478 1471 1464 1456 1449 1440 1432 1424 1416 1407 1399 1391 1383 1375 1368 1361 1354 1348 1342 1338 1334 1331 1329 1328 1328 1329 1330 1332